If you wish to contribute or participate in the discussions about articles you are invited to join SKYbrary as a registered user

 Actions

Asahikawa Airport

From SKYbrary Wiki

RJEC
Airport
ICAO: RJEC – IATA: AKJ
Summary
Name Asahikawa Airport
Region Asia and Pacific
Territory Japan JP.gif
Location Higashikagura, Hokkaidō
Serving Asahikawa
Elevation 210.312 m690 ft210.312 m
Coordinates 43° 40' 16.8737", 142° 27' 13.1684"
Runways
Designator Length Width Surface ROPS
16/34 2499 m8,198.819 ft 61 m200.131 ft ASP yes/yes


METAR
Observation RJEC 220600Z 34004KT 310V020 9999 FEW025 12/05 Q1023
Station Asahikawa Airport
Date/Time 22 October 2018 06:00:00
Wind direction 340°
Wind speed 04 kts
Lowest cloud amount few clouds
Temperature 12°C
Dew point 5°C
Humidity 62%
QNH 1023 hPa
Weather condition n/a

Asahikawa Airport is a single-runway regional airport in Hokkaidō, Japan, straddling the cities of Asahikawa and Higashikagura.

Climatology

Humid continental climate (Köppen climate classification Dfa) - characterized by four seasons: cold, windy, snowy winters, mild springs, hot, humid summers, and crisp and relatively short autumns. Precipitation reaches its lowest in January and February and peaks in summer and latter half of spring.

Maps

Terrain

Loading map...

Airport Layout

Loading map...


Accidents & Serious Incidents at or in vicinity of RJEC

None on SKYbrary